| time (UTC) | temp C | wind direction | speed KPH | gust KPH | rain 1hr cm | rain 24hr cm | rain mn cm | humidity % | barometer mb |
| 20260504204310 | 10 | 341 | 0.0 | 0.0 | 0.00 | 0.00 | 0.00 | 62 | 1014.9 |
| 20260504201310 | 10 | 341 | 0.0 | 0.0 | 0.00 | 0.00 | 0.00 | 62 | 1014.9 |
| 20260504194310 | 11 | 334 | 0.0 | 0.0 | 0.00 | 0.00 | 0.00 | 62 | 1014.6 |
| 20260504191310 | 11 | 334 | 0.0 | 0.0 | 0.00 | 0.00 | 0.00 | 61 | 1014.0 |
| 20260504184310 | 11 | 334 | 0.0 | 3.2 | 0.00 | 0.00 | 0.00 | 60 | 1013.3 |
| 20260504181310 | 12 | 358 | 0.0 | 0.0 | 0.00 | 0.00 | 0.00 | 58 | 1012.5 |
| 20260504174310 | 12 | 11 | 0.0 | 0.0 | 0.00 | 0.00 | 0.00 | 55 | 1011.6 |
| 20260504171310 | 13 | 349 | 0.0 | 0.0 | 0.00 | 0.00 | 0.00 | 50 | 1010.9 |
| 20260504141310 | 16 | 347 | 0.0 | 9.7 | 0.00 | 0.00 | 0.00 | 49 | 1006.2 |
| 20260504081310 | 22 | 239 | 22.5 | 49.9 | 0.00 | 0.00 | 0.00 | 51 | 995.6 |
| 20260504044310 | 27 | 232 | 19.3 | 86.9 | 0.00 | 0.00 | 0.00 | 49 | 993.5 |
| 20260504041310 | 27 | 209 | 16.1 | 49.9 | 0.00 | 0.00 | 0.00 | 50 | 993.9 |
| 20260504034310 | 27 | 326 | 19.3 | 59.5 | 0.00 | 0.00 | 0.00 | 52 | 994.4 |
| 20260504031310 | 27 | 207 | 14.5 | 43.5 | 0.00 | 0.00 | 0.00 | 54 | 994.7 |
| 20260504024310 | 27 | 259 | 20.9 | 27.4 | 0.00 | 0.00 | 0.00 | 54 | 994.9 |
| 20260504021310 | 27 | 266 | 16.1 | 33.8 | 0.00 | 0.00 | 0.00 | 57 | 994.9 |
| 20260504014310 | 26 | 208 | 19.3 | 30.6 | 0.00 | 0.00 | 0.00 | 60 | 994.7 |
| 20260504011310 | 26 | 284 | 25.7 | 53.1 | 0.00 | 0.00 | 0.00 | 63 | 995.0 |
| 20260504004310 | 25 | 201 | 14.5 | 59.5 | 0.00 | 0.00 | 0.00 | 70 | 995.0 |
| 20260504001310 | 24 | 196 | 20.9 | 43.5 | 0.00 | 0.00 | 0.00 | 76 | 995.4 |
| 20260503234310 | 24 | 234 | 14.5 | 37.0 | 0.00 | 0.00 | 0.00 | 78 | 995.3 |
| 20260503231310 | 23 | 277 | 20.9 | 46.7 | 0.00 | 0.00 | 0.00 | 81 | 995.7 |
| 20260503224310 | 23 | 238 | 22.5 | 53.1 | 0.00 | 0.00 | 0.00 | 82 | 995.3 |
| 20260503221310 | 23 | 206 | 16.1 | 59.5 | 0.00 | 0.00 | 0.00 | 83 | 995.0 |
| 20260503214310 | 21 | 220 | 12.9 | 12.9 | 0.00 | 0.00 | 0.00 | 84 | 996.4 |
| 20260503211310 | 21 | 220 | 12.9 | 12.9 | 0.00 | 0.00 | 0.00 | 84 | 996.4 |